Location: Newark
(30.1000°N, 109.4667°E)
Time: 21:26:08
(UTC+00:00)

Vanguard 2 Rocket - Pass Details

Date: 21 February 2020
Orbit: 554 x 3326 km, 32.9° (Epoch: 09 April)

Event Time Altitude Azimuth Distance (km) Brightness Sun altitude
Rises 15:07:14 0° 271° (W) 6,730 11.7 -58.1°
Reaches altitude 10° 15:12:19 10° 273° (W) 5,357 11.1 -59.0°
Enters shadow 15:19:21 30° 279° (W) 3,365 9.8 -60.3°
